| time (UTC) | temp F | wind direction | speed knots | gust knots | rain 1hr in | rain 24hr in | rain mn in | humidity % | barometer mb |
| 20260508140101 | 43 | 337 | 7.8 | 13.9 | 0.00 | 0.03 | 0.00 | 75 | 1004.4 |
| 20260508134549 | 43 | 360 | 8.7 | 11.3 | 0.00 | 0.07 | 0.00 | 76 | 1004.4 |
| 20260508133048 | 42 | 325 | 7.0 | 15.6 | 0.00 | 0.07 | 0.00 | 79 | 1004.3 |
| 20260508131546 | 42 | 288 | 8.7 | 14.8 | 0.00 | 0.07 | 0.00 | 79 | 1004.1 |
| 20260508130044 | 42 | 336 | 7.8 | 13.9 | 0.00 | 0.07 | 0.00 | 80 | 1003.9 |
| 20260508124542 | 41 | 332 | 8.7 | 16.5 | 0.00 | 0.11 | 0.00 | 80 | 1004.0 |
| 20260508123042 | 41 | 360 | 9.6 | 15.6 | 0.00 | 0.11 | 0.00 | 81 | 1003.8 |
| 20260508121543 | 41 | 319 | 8.7 | 15.6 | 0.00 | 0.11 | 0.00 | 81 | 1003.9 |
| 20260508120043 | 41 | 355 | 6.1 | 11.3 | 0.00 | 0.11 | 0.00 | 82 | 1003.7 |
| 20260508114545 | 41 | 321 | 6.1 | 13.0 | 0.00 | 0.15 | 0.00 | 81 | 1003.6 |
| 20260508113041 | 41 | 322 | 7.0 | 11.3 | 0.00 | 0.15 | 0.00 | 82 | 1003.4 |
| 20260508111545 | 40 | 360 | 8.7 | 14.8 | 0.00 | 0.15 | 0.00 | 82 | 1003.3 |
| 20260508110034 | 40 | 290 | 8.7 | 12.2 | 0.00 | 0.15 | 0.00 | 83 | 1003.2 |
| 20260508104536 | 40 | 360 | 9.6 | 14.8 | 0.00 | 0.20 | 0.00 | 83 | 1003.0 |
| 20260508103036 | 39 | 288 | 6.1 | 14.8 | 0.00 | 0.20 | 0.00 | 83 | 1002.8 |
| 20260508101532 | 39 | 360 | 7.8 | 12.2 | 0.00 | 0.20 | 0.00 | 83 | 1002.6 |
| 20260508100032 | 39 | 360 | 7.8 | 13.0 | 0.00 | 0.20 | 0.00 | 84 | 1002.5 |
| 20260508094530 | 38 | 360 | 7.0 | 13.9 | 0.00 | 0.26 | 0.00 | 84 | 1002.4 |
| 20260508093031 | 38 | 360 | 8.7 | 13.9 | 0.00 | 0.26 | 0.00 | 84 | 1002.2 |
| 20260508091532 | 38 | 360 | 8.7 | 15.6 | 0.00 | 0.26 | 0.00 | 84 | 1002.1 |
| 20260508090026 | 38 | 285 | 8.7 | 13.9 | 0.00 | 0.26 | 0.00 | 83 | 1002.0 |
| 20260508084524 | 38 | 360 | 7.8 | 13.0 | 0.00 | 0.32 | 0.00 | 82 | 1001.9 |
| 20260508083022 | 38 | 360 | 7.0 | 12.2 | 0.00 | 0.32 | 0.00 | 82 | 1002.1 |
| 20260508081519 | 38 | 288 | 6.1 | 11.3 | 0.00 | 0.32 | 0.00 | 81 | 1002.1 |
| 20260508080019 | 38 | 272 | 2.6 | 10.4 | 0.00 | 0.32 | 0.00 | 80 | 1002.2 |
| 20260508074518 | 39 | 360 | 4.3 | 11.3 | 0.00 | 0.39 | 0.00 | 80 | 1002.1 |
| 20260508073017 | 39 | 263 | 2.6 | 7.0 | 0.00 | 0.39 | 0.00 | 79 | 1002.2 |
| 20260508071513 | 39 | 290 | 3.5 | 7.0 | 0.00 | 0.39 | 0.00 | 78 | 1002.2 |
| 20260508070012 | 39 | 360 | 2.6 | 11.3 | 0.00 | 0.39 | 0.00 | 76 | 1002.3 |
| 20260508064517 | 39 | 360 | 5.2 | 8.7 | 0.00 | 0.46 | 0.00 | 76 | 1002.2 |
| 20260508063011 | 39 | 286 | 3.5 | 10.4 | 0.00 | 0.46 | 0.00 | 75 | 1002.3 |
| 20260508061509 | 40 | 360 | 5.2 | 15.6 | 0.00 | 0.46 | 0.00 | 74 | 1002.2 |
| 20260508060008 | 40 | 264 | 7.0 | 12.2 | 0.00 | 0.46 | 0.00 | 74 | 1002.2 |
| 20260508054510 | 40 | 360 | 9.6 | 14.8 | 0.00 | 0.55 | 0.00 | 73 | 1002.3 |
| 20260508053004 | 40 | 291 | 8.7 | 16.5 | 0.00 | 0.55 | 0.00 | 74 | 1002.6 |
| 20260508051606 | 40 | 274 | 6.1 | 11.3 | 0.00 | 0.55 | 0.00 | 74 | 1002.7 |
| 20260508050059 | 40 | 360 | 6.1 | 9.6 | 0.00 | 0.55 | 0.00 | 73 | 1002.8 |
| 20260508044555 | 41 | 360 | 7.0 | 11.3 | 0.00 | 0.63 | 0.00 | 71 | 1002.9 |
| 20260508043058 | 41 | 281 | 5.2 | 9.6 | 0.00 | 0.63 | 0.00 | 69 | 1003.0 |
| 20260508041551 | 41 | 255 | 2.6 | 7.8 | 0.00 | 0.63 | 0.00 | 68 | 1003.0 |
| 20260508040048 | 42 | 360 | 0.0 | 7.0 | 0.00 | 0.63 | 0.00 | 65 | 1003.0 |
| 20260508034550 | 43 | 264 | 3.5 | 10.4 | 0.00 | 0.72 | 0.63 | 63 | 1003.0 |
| 20260508033047 | 43 | 290 | 5.2 | 10.4 | 0.00 | 0.72 | 0.63 | 63 | 1003.0 |
| 20260508031544 | 43 | 284 | 3.5 | 7.8 | 0.00 | 0.72 | 0.63 | 62 | 1003.0 |
| 20260508030046 | 43 | 277 | 3.5 | 7.0 | 0.00 | 0.72 | 0.63 | 61 | 1003.0 |
| 20260508024554 | 43 | 241 | 1.7 | 7.0 | 0.00 | 0.79 | 0.63 | 63 | 1003.1 |
| 20260508023042 | 44 | 269 | 0.9 | 5.2 | 0.00 | 0.79 | 0.63 | 63 | 1003.2 |
| 20260508021545 | 44 | 269 | 0.0 | 6.1 | 0.00 | 0.79 | 0.63 | 62 | 1003.3 |
| 20260508020042 | 45 | 290 | 3.5 | 10.4 | 0.00 | 0.79 | 0.63 | 61 | 1003.3 |
| 20260508014541 | 45 | 248 | 4.3 | 10.4 | 0.00 | 0.88 | 0.63 | 60 | 1003.3 |
| 20260508013041 | 45 | 360 | 4.3 | 7.8 | 0.00 | 0.88 | 0.63 | 60 | 1003.3 |
| 20260508011514 | 45 | 258 | 0.0 | 4.3 | 0.00 | 0.88 | 0.63 | 64 | 1003.2 |
| 20260508010015 | 46 | 257 | 0.0 | 5.2 | 0.00 | 0.88 | 0.63 | 63 | 1003.0 |
| 20260508004513 | 46 | 258 | 0.0 | 4.3 | 0.00 | 0.97 | 0.63 | 63 | 1003.0 |
| 20260508003014 | 46 | 360 | 0.9 | 8.7 | 0.00 | 0.97 | 0.63 | 65 | 1002.8 |
| 20260508001512 | 46 | 279 | 1.7 | 6.1 | 0.00 | 0.97 | 0.63 | 66 | 1002.5 |
| 20260508000014 | 47 | 360 | 2.6 | 11.3 | 0.00 | 0.97 | 0.63 | 67 | 1002.5 |
| 20260507234513 | 48 | 360 | 7.0 | 11.3 | 0.00 | 1.06 | 0.63 | 65 | 1002.4 |
| 20260507233011 | 48 | 360 | 7.8 | 14.8 | 0.00 | 1.06 | 0.63 | 63 | 1002.2 |
| 20260507231510 | 49 | 360 | 2.6 | 11.3 | 0.00 | 1.06 | 0.63 | 61 | 1002.0 |
| 20260507230013 | 49 | 261 | 5.2 | 8.7 | 0.00 | 1.06 | 0.63 | 61 | 1001.9 |
| 20260507224513 | 49 | 360 | 8.7 | 13.0 | 0.00 | 1.15 | 0.63 | 63 | 1001.8 |
| 20260507223014 | 49 | 360 | 4.3 | 8.7 | 0.00 | 1.15 | 0.63 | 68 | 1001.8 |
| 20260507221508 | 48 | 360 | 7.8 | 13.0 | 0.00 | 1.15 | 0.63 | 68 | 1001.9 |
| 20260507220007 | 48 | 360 | 6.1 | 13.0 | 0.00 | 1.15 | 0.63 | 67 | 1001.8 |
| 20260507214519 | 49 | 290 | 10.4 | 15.6 | 0.00 | 1.25 | 0.63 | 67 | 1001.6 |
| 20260507213006 | 49 | 360 | 12.2 | 20.9 | 0.00 | 1.25 | 0.63 | 64 | 1001.4 |
| 20260507211507 | 51 | 360 | 12.2 | 18.2 | 0.00 | 1.25 | 0.63 | 61 | 1001.2 |
| 20260507210005 | 53 | 360 | 7.8 | 12.2 | 0.00 | 1.25 | 0.63 | 53 | 1000.8 |
| 20260507204505 | 53 | 360 | 6.1 | 13.0 | 0.00 | 1.32 | 0.63 | 56 | 1000.7 |
| 20260507203004 | 54 | 320 | 7.8 | 13.9 | 0.00 | 1.32 | 0.63 | 55 | 1000.6 |
| 20260507201503 | 54 | 360 | 6.1 | 9.6 | 0.00 | 1.32 | 0.63 | 59 | 1000.4 |
| 20260507200003 | 54 | 360 | 7.8 | 14.8 | 0.00 | 1.32 | 0.63 | 54 | 1000.4 |
| 20260507194503 | 55 | 360 | 4.3 | 7.8 | 0.00 | 1.38 | 0.63 | 52 | 1000.4 |
| 20260507193002 | 55 | 252 | 0.0 | 0.9 | 0.00 | 1.38 | 0.63 | 49 | 1000.3 |
| 20260507191501 | 56 | 217 | 5.2 | 7.8 | 0.00 | 1.38 | 0.63 | 46 | 1000.3 |
| 20260507184604 | 55 | 267 | 2.6 | 7.8 | 0.00 | 1.40 | 0.63 | 45 | 1000.3 |
| 20260507183058 | 55 | 360 | 4.3 | 10.4 | 0.00 | 1.40 | 0.63 | 44 | 1000.5 |
| 20260507181557 | 55 | 28 | 0.0 | 7.8 | 0.00 | 1.40 | 0.63 | 50 | 1000.6 |
| 20260507180057 | 56 | 331 | 6.1 | 9.6 | 0.00 | 1.40 | 0.63 | 50 | 1000.6 |
| 20260507174605 | 55 | 233 | 1.7 | 12.2 | 0.00 | 1.44 | 0.63 | 52 | 1000.8 |
| 20260507173102 | 55 | 360 | 7.0 | 12.2 | 0.00 | 1.44 | 0.63 | 52 | 1001.0 |
| 20260507171603 | 54 | 320 | 0.0 | 13.0 | 0.00 | 1.44 | 0.63 | 57 | 1001.1 |
| 20260507170051 | 55 | 360 | 0.9 | 11.3 | 0.01 | 1.44 | 0.63 | 52 | 1001.3 |
| 20260507164548 | 54 | 338 | 7.0 | 14.8 | 0.01 | 1.45 | 0.63 | 55 | 1001.4 |
| 20260507163047 | 54 | 290 | 6.1 | 10.4 | 0.01 | 1.45 | 0.63 | 59 | 1001.6 |
| 20260507161545 | 53 | 290 | 5.2 | 11.3 | 0.01 | 1.45 | 0.63 | 59 | 1001.6 |
| 20260507160047 | 53 | 327 | 9.6 | 13.0 | 0.00 | 1.44 | 0.62 | 63 | 1001.7 |
| 20260507154543 | 52 | 360 | 6.1 | 10.4 | 0.00 | 1.44 | 0.62 | 65 | 1002.0 |
| 20260507153041 | 52 | 360 | 5.2 | 10.4 | 0.00 | 1.44 | 0.62 | 70 | 1002.1 |
| 20260507151538 | 51 | 336 | 7.8 | 11.3 | 0.01 | 1.44 | 0.62 | 70 | 1002.3 |
| 20260507150036 | 50 | 360 | 6.1 | 9.6 | 0.02 | 1.44 | 0.62 | 70 | 1002.2 |
| 20260507144547 | 49 | 360 | 2.6 | 9.6 | 0.03 | 1.44 | 0.62 | 76 | 1002.2 |
| 20260507143033 | 48 | 355 | 4.3 | 10.4 | 0.03 | 1.44 | 0.62 | 76 | 1002.3 |
| 20260507141531 | 48 | 360 | 7.0 | 11.3 | 0.03 | 1.43 | 0.61 | 80 | 1002.4 |